Weather History for PACD - January, 2014

Change the Weather History Date:

Wednesday, January 22, 2014

  Actual Average Record
Temperature  
Mean Temperature 35 °F 28 °F  
Max Temperature 37 °F 33 °F 49 °F (1969)
Min Temperature 33 °F 23 °F -3 °F (1993)
Degree Days  
Heating Degree Days 30 37  
Month to date heating degree days 616 806  
Since 1 July heating degree days 3962 4883  
Cooling Degree Days 0    
Month to date cooling degree days 0  
Year to date cooling degree days 0  
Moisture  
Dew Point 32 °F    
Average Humidity 89    
Maximum Humidity 93    
Minimum Humidity 71    
Precipitation  
Precipitation 0.26 in 0.10 in 2.85 in (1999)
Month to date precipitation 2.47 2.26  
Year to date precipitation 2.47 2.26  
Snow  
Snow 0.70 in 0.50 in 6.70 in (1982)
Month to date snowfall 2.5 10.1  
Since 1 July snowfall 13.4 35.3  
Snow Depth T in    
Sea Level Pressure  
Sea Level Pressure 29.02 in    
Wind  
Wind Speed 15 mph (North)    
Max Wind Speed 28 mph    
Max Gust Speed 36 mph    
Visibility 7 miles    
Events Rain , Snow    
T = Trace of Precipitation, MM = Missing Value Source: NWS Daily Summary

Daily Weather History Graph

Daily Weather History Graph

Search for Another Location

Airport or City:

Trip Planner

Search our weather history database for the weather conditions in past years. The results will help you decide how hot, cold, wet, or windy it might be!

Date:

Astronomy

Jan. 22, 2014 Rise Set
Actual Time 9:58 AM AKST 6:07 PM AKST
Civil Twilight 9:16 AM AKST 6:49 PM AKST
Nautical Twilight 8:31 AM AKST 7:34 PM AKST
Astronomical Twilight 7:48 AM AKST 8:17 PM AKST
Moon 12:57 AM AKST (1/22) 11:55 AM AKST (1/22)
Length of Visible Light 9h 32m
Length of Day
8h 08m
Waning Gibbous, 64% of the Moon is Illuminated
Jan 22
Waning Gibbous
Jan 23
Last Quarter
Jan 30
New
Feb 6
First Quarter
Feb 14
Full

Hourly Weather History & Observations

Time (AKST) Temp. Windchill Dew Point Humidity Pressure Visibility Wind Dir Wind Speed Gust Speed Precip Events Conditions
12:53 AM 33.1 °F 21.2 °F 28.0 °F 82% 29.34 in 10.0 mi NNE 20.7 mph 27.6 mph N/A   Mostly Cloudy
1:53 AM 34.0 °F 23.0 °F 27.0 °F 75% 29.32 in 10.0 mi NNE 18.4 mph 26.5 mph N/A   Mostly Cloudy
2:53 AM 34.0 °F 22.7 °F 28.0 °F 79% 29.28 in 10.0 mi NNE 19.6 mph - N/A   Overcast
3:53 AM 34.0 °F 21.8 °F 28.0 °F 79% 29.24 in 10.0 mi NNE 23.0 mph 31.1 mph N/A   Overcast
4:53 AM 34.0 °F 21.5 °F 28.9 °F 82% 29.21 in 10.0 mi North 24.2 mph - N/A   Overcast
5:53 AM 34.0 °F 21.0 °F 30.0 °F 85% 29.18 in 2.5 mi NNE 26.5 mph 32.2 mph 0.00 in Snow Light Snow
6:01 AM 33.8 °F 21.0 °F 30.2 °F 87% 29.17 in 5.0 mi NNE 25.3 mph 32.2 mph 0.00 in Snow Light Snow
6:53 AM 34.0 °F 21.5 °F 30.0 °F 85% 29.15 in 4.0 mi NNE 24.2 mph 31.1 mph 0.00 in Snow Light Snow
7:05 AM 33.8 °F 21.6 °F 30.2 °F 87% 29.13 in 6.0 mi North 23.0 mph 32.2 mph 0.00 in Snow Light Snow
7:29 AM 33.8 °F 22.5 °F 30.2 °F 87% 29.13 in 8.0 mi North 19.6 mph 27.6 mph 0.00 in Snow Light Snow
7:53 AM 34.0 °F 22.1 °F 30.9 °F 89% 29.12 in 5.0 mi North 21.9 mph 29.9 mph 0.00 in Snow Light Snow
8:37 AM 33.8 °F 20.8 °F 30.2 °F 87% 29.09 in 4.0 mi North 26.5 mph 34.5 mph 0.00 in Snow Light Snow
8:53 AM 34.0 °F 21.5 °F 30.9 °F 89% 29.09 in 4.0 mi North 24.2 mph 32.2 mph 0.00 in Snow Light Snow
9:02 AM 33.8 °F 21.6 °F 30.2 °F 87% 29.08 in 2.0 mi North 23.0 mph - 0.00 in Snow Light Snow
9:17 AM 33.8 °F 21.3 °F 30.2 °F 87% 29.07 in 3.0 mi North 24.2 mph 33.4 mph 0.00 in Snow Light Snow
9:43 AM 33.8 °F 21.0 °F 32.0 °F 93% 29.06 in 2.0 mi North 25.3 mph 33.4 mph 0.00 in Snow Light Snow
9:51 AM 33.8 °F 21.3 °F 32.0 °F 93% 29.06 in 1.8 mi North 24.2 mph 33.4 mph 0.01 in Snow Light Snow
9:53 AM 34.0 °F 22.4 °F 32.0 °F 92% 29.07 in 2.0 mi North 20.7 mph 32.2 mph 0.01 in Snow Light Snow
10:07 AM 33.8 °F 21.3 °F 32.0 °F 93% 29.05 in 3.0 mi North 24.2 mph 33.4 mph 0.00 in Snow Light Snow
10:53 AM 34.0 °F 22.4 °F 32.0 °F 92% 29.04 in 2.5 mi North 20.7 mph - 0.00 in Snow Light Snow
11:06 AM 33.8 °F 21.9 °F 32.0 °F 93% 29.03 in 3.0 mi North 21.9 mph 28.8 mph 0.00 in Snow Light Snow
11:24 AM 33.8 °F 22.5 °F 32.0 °F 93% 29.03 in 4.0 mi North 19.6 mph 26.5 mph 0.00 in Snow Light Snow
11:53 AM 34.0 °F 23.0 °F 32.0 °F 92% 29.02 in 1.8 mi North 18.4 mph 28.8 mph 0.02 in Snow Light Snow
12:08 PM 33.8 °F 22.5 °F 32.0 °F 93% 29.02 in 2.0 mi North 19.6 mph - 0.00 in Snow Light Snow
12:37 PM 33.8 °F 22.8 °F 32.0 °F 93% 29.01 in 3.0 mi North 18.4 mph - 0.02 in Snow Light Snow
12:53 PM 35.1 °F 24.8 °F 32.0 °F 89% 29.00 in 4.0 mi North 17.3 mph - 0.02 in Snow Light Snow
1:31 PM 33.8 °F 23.2 °F 32.0 °F 93% 28.98 in 1.8 mi North 17.3 mph - 0.01 in Snow Light Snow
1:39 PM 35.6 °F 26.2 °F 32.0 °F 87% 28.98 in 2.0 mi North 15.0 mph - 0.02 in Snow Light Snow
1:46 PM 35.6 °F 26.2 °F 32.0 °F 87% 28.98 in 6.0 mi North 15.0 mph - 0.03 in Snow Light Snow
1:53 PM 35.1 °F 25.2 °F 32.0 °F 89% 28.98 in 8.0 mi North 16.1 mph 23.0 mph 0.03 in Rain Light Rain
2:47 PM 35.6 °F 26.6 °F 33.8 °F 93% 28.95 in 8.0 mi North 13.8 mph - 0.01 in Rain Light Rain
2:53 PM 35.1 °F 26.4 °F 33.1 °F 92% 28.95 in 8.0 mi North 12.7 mph - 0.01 in Rain Light Rain
3:00 PM 35.6 °F 26.6 °F 33.8 °F 93% 28.94 in 10.0 mi North 13.8 mph - 0.00 in Rain Light Rain
3:19 PM 35.6 °F 26.6 °F 32.0 °F 87% 28.94 in 9.0 mi NNE 13.8 mph - 0.00 in Rain Light Rain
3:53 PM 35.1 °F 26.4 °F 33.1 °F 92% 28.93 in 9.0 mi North 12.7 mph - 0.00 in Rain Light Rain
4:00 PM 35.6 °F 26.6 °F 33.8 °F 93% 28.93 in 7.0 mi North 13.8 mph - 0.01 in Rain Light Rain
4:12 PM 35.6 °F 27.1 °F 33.8 °F 93% 28.93 in 9.0 mi North 12.7 mph - 0.01 in Rain Light Rain
4:34 PM 35.6 °F 26.6 °F 33.8 °F 93% 28.93 in 6.0 mi North 13.8 mph - 0.03 in Rain Light Rain
4:53 PM 35.1 °F 25.9 °F 32.0 °F 89% 28.93 in 7.0 mi North 13.8 mph - 0.05 in Rain Light Rain
5:23 PM 35.6 °F 28.6 °F 33.8 °F 93% 28.92 in 10.0 mi North 9.2 mph - 0.04 in Rain Light Rain
5:53 PM 35.1 °F 27.9 °F 33.1 °F 92% 28.93 in 8.0 mi North 9.2 mph - 0.06 in Rain Light Rain
6:34 PM 35.6 °F 29.9 °F 33.8 °F 93% 28.92 in 10.0 mi North 6.9 mph - 0.01 in   Overcast
6:53 PM 35.1 °F 29.3 °F 33.1 °F 92% 28.92 in 9.0 mi North 6.9 mph - 0.01 in Rain Light Rain
7:53 PM 36.0 °F 32.1 °F 34.0 °F 93% 28.91 in 10.0 mi North 4.6 mph - 0.01 in   Overcast
8:53 PM 36.0 °F - 33.1 °F 89% 28.90 in 10.0 mi Calm Calm - 0.00 in   Overcast
9:29 PM 35.6 °F - 33.8 °F 93% 28.88 in 10.0 mi Calm Calm - N/A   Overcast
9:53 PM 36.0 °F - 34.0 °F 93% 28.88 in 9.0 mi Calm Calm - 0.00 in Rain Light Rain
10:10 PM 35.6 °F - 33.8 °F 93% 28.87 in 10.0 mi Calm Calm - 0.00 in Rain Light Rain
10:38 PM 35.6 °F - 33.8 °F 93% 28.87 in 10.0 mi Calm Calm - 0.01 in Rain Light Rain
10:53 PM 35.1 °F - 33.1 °F 92% 28.87 in 10.0 mi Calm Calm - 0.01 in Rain Light Rain
11:53 PM 35.1 °F 32.2 °F 33.1 °F 92% 28.85 in 10.0 mi West 3.5 mph - 0.03 in Rain Light Rain